Location: Keewatin
(47.4004°N, 93.0827°W)
Time: 17:35:56
(UTC+00:00)

ZACube-1 - Pass Details

Date: 06 March 2020
Orbit: 584 x 667 km, 97.6° (Epoch: 05 April)

Event Time Altitude Azimuth Distance (km) Brightness Sun altitude
Rises 12:05:33 0° 15° (NNE) 3,005 ? -7.0°
Reaches altitude 10° 12:07:50 10° 19° (NNE) 2,080 ? -6.6°
Maximum altitude 12:12:20 64° 100° (E) 720 ? -5.8°
Drops below altitude 10° 12:16:44 10° 183° (S) 2,018 ? -5.1°
Sets 12:18:54 0° 186° (S) 2,908 ? -4.7°
